LXJ670 SCCI-SCTE

Flight info

Callsign LXJ670
Flight time 1h 43m
Altitude 43000
Route SIRUN4A SIRUN UQ802 CAUKE CAUKE5B
Aircraft GLF6/M-SBDE1E2E3FGHIJ3J4J5J7M1P2RWXYZ/LB1D1

Departure

Time 2026-05-05 19:03
Airport President Carlos Ibáñez International Airport (SCCI)

Arrival

Time 2026-05-05 20:46
Airport El Tepual International Airport (SCTE)
Time Latitude Longitude Altitude Speed Heading
2026-05-05 18:41 -53.00460 -70.84601 148 ft 0 kts 225°
2026-05-05 18:59 -53.00463 -70.84617 148 ft 1 kts 275°
2026-05-05 18:59 -53.00450 -70.84631 148 ft 2 kts 346°
2026-05-05 18:59 -53.00421 -70.84624 148 ft 6 kts 11°
2026-05-05 19:00 -53.00366 -70.84646 148 ft 10 kts 331°
2026-05-05 19:00 -53.00304 -70.84706 148 ft 9 kts 328°
2026-05-05 19:00 -53.00249 -70.84688 148 ft 8 kts 78°
2026-05-05 19:00 -53.00252 -70.84560 148 ft 12 kts 87°
2026-05-05 19:01 -53.00249 -70.84390 148 ft 16 kts 91°
2026-05-05 19:01 -53.00246 -70.84180 148 ft 19 kts 87°
2026-05-05 19:01 -53.00244 -70.83972 148 ft 17 kts 89°
2026-05-05 19:01 -53.00241 -70.83766 148 ft 18 kts 90°
2026-05-05 19:02 -53.00237 -70.83557 148 ft 18 kts 89°
2026-05-05 19:02 -53.00222 -70.83416 148 ft 9 kts 31°
2026-05-05 19:02 -53.00157 -70.83415 148 ft 11 kts 360°
2026-05-05 19:02 -53.00077 -70.83426 148 ft 9 kts 338°
2026-05-05 19:03 -53.00064 -70.83466 148 ft 0 kts 269°
2026-05-05 19:03 -53.00068 -70.83725 148 ft 77 kts 269°
2026-05-05 19:03 -53.00083 -70.85310 379 ft 179 kts 268°
2026-05-05 19:03 -53.00088 -70.87519 1357 ft 188 kts 267°
2026-05-05 19:04 -53.00072 -70.89988 2013 ft 250 kts 272°
2026-05-05 19:04 -52.99339 -70.92654 2706 ft 259 kts 307°
2026-05-05 19:04 -52.98031 -70.94833 3474 ft 269 kts 312°
2026-05-05 19:04 -52.96629 -70.97016 4869 ft 284 kts 311°
2026-05-05 19:05 -52.95349 -70.98965 7315 ft 258 kts 308°
2026-05-05 19:05 -52.94090 -71.00909 9142 ft 255 kts 308°
2026-05-05 19:05 -52.92857 -71.02806 10925 ft 251 kts 308°
2026-05-05 19:05 -52.91527 -71.04872 11841 ft 278 kts 310°
2026-05-05 19:06 -52.90143 -71.07006 13500 ft 275 kts 309°
2026-05-05 19:06 -52.88803 -71.09251 14751 ft 285 kts 308°
2026-05-05 19:06 -52.87394 -71.11629 15989 ft 295 kts 308°
2026-05-05 19:06 -52.85976 -71.14022 17358 ft 299 kts 308°
2026-05-05 19:07 -52.84528 -71.16470 18551 ft 309 kts 308°
2026-05-05 19:07 -52.83020 -71.19017 19818 ft 316 kts 308°
2026-05-05 19:07 -52.81479 -71.21616 21064 ft 324 kts 309°
2026-05-05 19:07 -52.79890 -71.24293 22272 ft 333 kts 309°
2026-05-05 19:08 -52.78272 -71.27018 23453 ft 340 kts 309°
2026-05-05 19:08 -52.76618 -71.29799 24565 ft 348 kts 309°
2026-05-05 19:08 -52.74935 -71.32625 25613 ft 355 kts 309°
2026-05-05 19:08 -52.73187 -71.35557 26631 ft 362 kts 309°
2026-05-05 19:09 -52.71330 -71.38450 27591 ft 371 kts 312°
2026-05-05 19:09 -52.69436 -71.41290 28494 ft 378 kts 312°
2026-05-05 19:09 -52.67474 -71.44222 29401 ft 384 kts 312°
2026-05-05 19:09 -52.65465 -71.47216 30236 ft 392 kts 312°
2026-05-05 19:10 -52.63437 -71.50237 31045 ft 398 kts 313°
2026-05-05 19:10 -52.61371 -71.53309 31840 ft 404 kts 313°
2026-05-05 19:10 -52.59298 -71.56387 32590 ft 410 kts 313°
2026-05-05 19:10 -52.57176 -71.59532 33306 ft 416 kts 313°
2026-05-05 19:11 -52.55020 -71.62725 33979 ft 421 kts 313°
2026-05-05 19:11 -52.52850 -71.65932 34812 ft 421 kts 314°
2026-05-05 19:11 -52.50682 -71.69132 35727 ft 418 kts 313°
2026-05-05 19:11 -52.48533 -71.72302 36539 ft 417 kts 313°
2026-05-05 19:12 -52.46370 -71.75487 37267 ft 417 kts 313°
2026-05-05 19:12 -52.44225 -71.78643 37942 ft 418 kts 313°
2026-05-05 19:12 -52.42059 -71.81825 38679 ft 417 kts 314°
2026-05-05 19:12 -52.39917 -71.84965 39367 ft 416 kts 313°
2026-05-05 19:13 -52.37770 -71.88110 39939 ft 418 kts 313°
2026-05-05 19:13 -52.35596 -71.91291 40584 ft 417 kts 314°
2026-05-05 19:13 -52.33453 -71.94419 41210 ft 416 kts 313°
2026-05-05 19:13 -52.31305 -71.97554 41703 ft 417 kts 313°
2026-05-05 19:14 -52.29150 -72.00693 42204 ft 418 kts 313°
2026-05-05 19:14 -52.26989 -72.03836 42720 ft 419 kts 314°
2026-05-05 19:14 -52.24795 -72.07027 42770 ft 430 kts 314°
2026-05-05 19:14 -52.22515 -72.10337 42789 ft 442 kts 314°
2026-05-05 19:15 -52.17903 -72.17012 42773 ft 447 kts 314°
2026-05-05 19:15 -52.13265 -72.23710 42775 ft 444 kts 314°
2026-05-05 19:16 -52.08651 -72.30353 42777 ft 443 kts 314°
2026-05-05 19:16 -52.04060 -72.36947 42782 ft 443 kts 314°
2026-05-05 19:17 -51.99450 -72.43546 42791 ft 444 kts 314°
2026-05-05 19:17 -51.94786 -72.50204 42797 ft 445 kts 314°
2026-05-05 19:18 -51.90167 -72.56780 42798 ft 444 kts 314°
2026-05-05 19:18 -51.85526 -72.63368 42800 ft 443 kts 314°
2026-05-05 19:19 -51.80451 -72.69096 42815 ft 451 kts 322°
2026-05-05 19:19 -51.75090 -72.74349 42808 ft 451 kts 324°
2026-05-05 19:20 -51.69704 -72.79520 42809 ft 452 kts 324°
2026-05-05 19:20 -51.64303 -72.84690 42807 ft 451 kts 324°
2026-05-05 19:21 -51.58943 -72.89806 42804 ft 452 kts 324°
2026-05-05 19:21 -51.53522 -72.94965 42804 ft 451 kts 324°
2026-05-05 19:22 -51.48140 -73.00073 42804 ft 449 kts 324°
2026-05-05 19:22 -51.42799 -73.05127 42800 ft 445 kts 324°
2026-05-05 19:23 -51.37502 -73.10127 42803 ft 442 kts 324°
2026-05-05 19:23 -51.32255 -73.15067 42802 ft 439 kts 324°
2026-05-05 19:24 -51.27021 -73.19978 42799 ft 435 kts 324°
2026-05-05 19:24 -51.21800 -73.24864 42800 ft 436 kts 324°
2026-05-05 19:25 -51.16579 -73.29736 42798 ft 435 kts 324°
2026-05-05 19:25 -51.11352 -73.34599 42799 ft 437 kts 324°
2026-05-05 19:26 -51.06146 -73.39432 42797 ft 436 kts 324°
2026-05-05 19:26 -51.00892 -73.44297 42793 ft 438 kts 324°
2026-05-05 19:27 -50.95631 -73.49155 42797 ft 445 kts 325°
2026-05-05 19:27 -50.90255 -73.54105 42798 ft 449 kts 326°
2026-05-05 19:28 -50.84845 -73.59070 42800 ft 453 kts 326°
2026-05-05 19:28 -50.79435 -73.64024 42797 ft 452 kts 326°
2026-05-05 19:29 -50.73985 -73.69000 42805 ft 453 kts 326°
2026-05-05 19:29 -50.68552 -73.73949 42807 ft 453 kts 326°
2026-05-05 19:30 -50.63132 -73.78873 42809 ft 452 kts 326°
2026-05-05 19:30 -50.57669 -73.83822 42802 ft 452 kts 326°
2026-05-05 19:31 -50.52236 -73.88730 42807 ft 452 kts 326°
2026-05-05 19:31 -50.46798 -73.93631 42808 ft 453 kts 326°
2026-05-05 19:32 -50.41334 -73.98542 42804 ft 452 kts 326°
2026-05-05 19:32 -50.35480 -74.02126 42785 ft 466 kts 348°
2026-05-05 19:33 -50.28943 -74.01720 42796 ft 475 kts 359°
2026-05-05 19:33 -50.22355 -74.00843 42797 ft 475 kts 359°
2026-05-05 19:34 -50.15765 -73.99967 42796 ft 476 kts 359°
2026-05-05 19:35 -50.05971 -73.98670 42806 ft 475 kts 359°
2026-05-05 19:35 -49.99402 -73.97804 42805 ft 475 kts 359°
2026-05-05 19:36 -49.92794 -73.96934 42808 ft 475 kts 359°
2026-05-05 19:36 -49.86234 -73.96073 42809 ft 476 kts 359°
2026-05-05 19:37 -49.79642 -73.95210 42807 ft 476 kts 359°
2026-05-05 19:37 -49.73062 -73.94351 42802 ft 476 kts 359°
2026-05-05 19:38 -49.66450 -73.93490 42806 ft 476 kts 359°
2026-05-05 19:38 -49.59901 -73.92641 42802 ft 475 kts 359°
2026-05-05 19:39 -49.53332 -73.91790 42806 ft 475 kts 359°
2026-05-05 19:39 -49.46735 -73.90937 42806 ft 475 kts 359°
2026-05-05 19:40 -49.40168 -73.90093 42807 ft 475 kts 359°
2026-05-05 19:40 -49.33597 -73.89249 42802 ft 476 kts 359°
2026-05-05 19:41 -49.27006 -73.88404 42802 ft 475 kts 359°
2026-05-05 19:41 -49.20463 -73.87569 42802 ft 475 kts 359°
2026-05-05 19:42 -49.13882 -73.86732 42806 ft 476 kts 359°
2026-05-05 19:42 -49.07285 -73.85893 42804 ft 478 kts 359°
2026-05-05 19:43 -49.00631 -73.85049 42802 ft 484 kts 358°
2026-05-05 19:43 -48.93924 -73.84203 42807 ft 489 kts 358°
2026-05-05 19:44 -48.87130 -73.83347 42813 ft 488 kts 358°
2026-05-05 19:44 -48.80362 -73.82497 42799 ft 489 kts 358°
2026-05-05 19:45 -48.73581 -73.81648 42802 ft 489 kts 358°
2026-05-05 19:45 -48.66815 -73.80803 42796 ft 488 kts 358°
2026-05-05 19:46 -48.60067 -73.79962 42806 ft 489 kts 358°
2026-05-05 19:46 -48.53322 -73.79124 42814 ft 487 kts 358°
2026-05-05 19:47 -48.46555 -73.78286 42798 ft 490 kts 358°
2026-05-05 19:47 -48.39777 -73.77448 42806 ft 491 kts 358°
2026-05-05 19:48 -48.32973 -73.76608 42803 ft 489 kts 358°
2026-05-05 19:48 -48.26239 -73.75780 42802 ft 489 kts 358°
2026-05-05 19:49 -48.19442 -73.74950 42812 ft 490 kts 358°
2026-05-05 19:49 -48.12678 -73.74123 42811 ft 488 kts 358°
2026-05-05 19:50 -48.05904 -73.73299 42813 ft 488 kts 358°
2026-05-05 19:50 -47.99223 -73.72489 42810 ft 490 kts 358°
2026-05-05 19:51 -47.92392 -73.71662 42830 ft 490 kts 358°
2026-05-05 19:51 -47.85590 -73.70842 42849 ft 488 kts 358°
2026-05-05 19:52 -47.78902 -73.70037 42863 ft 491 kts 358°
2026-05-05 19:52 -47.72169 -73.69228 42863 ft 487 kts 358°
2026-05-05 19:53 -47.65437 -73.68423 42858 ft 491 kts 358°
2026-05-05 19:53 -47.58614 -73.67607 42853 ft 484 kts 358°
2026-05-05 19:53 -47.55397 -73.67213 42823 ft 453 kts 357°
2026-05-05 19:54 -47.52274 -73.66846 42839 ft 444 kts 357°
2026-05-05 19:54 -47.46302 -73.66145 42871 ft 454 kts 358°
2026-05-05 19:55 -47.40041 -73.65400 42864 ft 457 kts 358°
2026-05-05 19:55 -47.33899 -73.64674 42862 ft 452 kts 358°
2026-05-05 19:56 -47.27708 -73.63944 42867 ft 453 kts 358°
2026-05-05 19:56 -47.21433 -73.63204 42864 ft 453 kts 357°
2026-05-05 19:57 -47.15398 -73.62495 42864 ft 454 kts 358°
2026-05-05 19:57 -47.09037 -73.61750 42863 ft 454 kts 357°
2026-05-05 19:58 -47.02802 -73.61021 42866 ft 455 kts 358°
2026-05-05 19:58 -46.96501 -73.60530 42859 ft 456 kts 355°
2026-05-05 19:59 -46.90077 -73.60227 42866 ft 463 kts 356°
2026-05-05 19:59 -46.83638 -73.59921 42863 ft 464 kts 356°
2026-05-05 20:00 -46.77256 -73.59620 42859 ft 464 kts 356°
2026-05-05 20:00 -46.70837 -73.59318 42853 ft 464 kts 356°
2026-05-05 20:01 -46.64473 -73.59020 42865 ft 465 kts 356°
2026-05-05 20:01 -46.58054 -73.58720 42861 ft 462 kts 356°
2026-05-05 20:02 -46.51618 -73.58420 42864 ft 464 kts 356°
2026-05-05 20:02 -46.45221 -73.58122 42862 ft 463 kts 356°
2026-05-05 20:03 -46.38757 -73.57821 42867 ft 464 kts 356°
2026-05-05 20:03 -46.32353 -73.57526 42862 ft 463 kts 356°
2026-05-05 20:04 -46.25946 -73.57230 42864 ft 464 kts 356°
2026-05-05 20:04 -46.19487 -73.56931 42863 ft 465 kts 356°
2026-05-05 20:05 -46.13042 -73.56634 42860 ft 463 kts 356°
2026-05-05 20:05 -46.06630 -73.56341 42860 ft 463 kts 356°
2026-05-05 20:06 -46.00215 -73.56046 42863 ft 464 kts 356°
2026-05-05 20:06 -45.93774 -73.55752 42859 ft 464 kts 356°
2026-05-05 20:07 -45.87293 -73.55458 42860 ft 465 kts 356°
2026-05-05 20:07 -45.81047 -73.55173 42863 ft 464 kts 356°
2026-05-05 20:08 -45.74500 -73.54877 42862 ft 464 kts 356°
2026-05-05 20:08 -45.70899 -73.54713 42865 ft 464 kts 356°
2026-05-05 20:09 -45.65506 -73.54470 42865 ft 464 kts 356°
2026-05-05 20:09 -45.59082 -73.54179 42864 ft 463 kts 356°
2026-05-05 20:10 -45.52651 -73.53891 42853 ft 463 kts 356°
2026-05-05 20:10 -45.46160 -73.53599 42859 ft 463 kts 356°
2026-05-05 20:11 -45.39737 -73.53311 42860 ft 465 kts 356°
2026-05-05 20:11 -45.33289 -73.53023 42861 ft 462 kts 356°
2026-05-05 20:12 -45.26855 -73.52737 42863 ft 463 kts 356°
2026-05-05 20:12 -45.20422 -73.52450 42863 ft 462 kts 356°
2026-05-05 20:13 -45.14028 -73.52013 42864 ft 466 kts 359°
2026-05-05 20:13 -45.07612 -73.51208 42865 ft 469 kts 360°
2026-05-05 20:14 -45.01069 -73.50388 42865 ft 475 kts
2026-05-05 20:14 -44.94489 -73.49564 42865 ft 477 kts
2026-05-05 20:15 -44.87908 -73.48740 42859 ft 476 kts
2026-05-05 20:15 -44.81297 -73.47916 42859 ft 476 kts
2026-05-05 20:16 -44.74703 -73.47097 42860 ft 477 kts
2026-05-05 20:16 -44.68109 -73.46280 42860 ft 476 kts
2026-05-05 20:17 -44.61495 -73.45462 42860 ft 477 kts
2026-05-05 20:17 -44.54888 -73.44647 42860 ft 476 kts
2026-05-05 20:18 -44.48306 -73.43835 42861 ft 477 kts
2026-05-05 20:18 -44.41727 -73.43027 42861 ft 476 kts
2026-05-05 20:19 -44.35117 -73.42217 42861 ft 476 kts
2026-05-05 20:19 -44.28469 -73.41406 42879 ft 487 kts
2026-05-05 20:19 -44.25075 -73.40992 42902 ft 499 kts
2026-05-05 20:20 -44.21593 -73.40566 42915 ft 502 kts
2026-05-05 20:20 -44.14676 -73.39722 42887 ft 500 kts
2026-05-05 20:20 -44.11214 -73.39302 42773 ft 502 kts
2026-05-05 20:21 -44.07737 -73.38880 42383 ft 502 kts
2026-05-05 20:21 -44.04361 -73.38470 41843 ft 500 kts
2026-05-05 20:21 -44.00827 -73.38042 41274 ft 498 kts
2026-05-05 20:21 -43.97391 -73.37627 40720 ft 498 kts
2026-05-05 20:22 -43.93926 -73.37209 40164 ft 498 kts
2026-05-05 20:22 -43.90516 -73.36797 39624 ft 498 kts
2026-05-05 20:22 -43.87015 -73.36375 39050 ft 498 kts
2026-05-05 20:22 -43.83619 -73.35967 38507 ft 498 kts
2026-05-05 20:23 -43.80137 -73.35548 37949 ft 498 kts
2026-05-05 20:23 -43.76697 -73.35135 37401 ft 498 kts
2026-05-05 20:23 -43.73248 -73.34721 36878 ft 497 kts
2026-05-05 20:23 -43.69826 -73.34311 36772 ft 497 kts
2026-05-05 20:24 -43.66347 -73.33895 35836 ft 501 kts
2026-05-05 20:24 -43.62886 -73.33480 35203 ft 499 kts
2026-05-05 20:24 -43.59444 -73.33070 34629 ft 500 kts
2026-05-05 20:24 -43.56001 -73.32659 34076 ft 502 kts
2026-05-05 20:25 -43.52494 -73.32241 33513 ft 503 kts
2026-05-05 20:25 -43.49003 -73.31826 32956 ft 505 kts
2026-05-05 20:25 -43.45522 -73.31412 32400 ft 505 kts
2026-05-05 20:25 -43.42041 -73.30999 31844 ft 505 kts
2026-05-05 20:26 -43.38536 -73.30583 31282 ft 506 kts
2026-05-05 20:26 -43.35032 -73.30168 30728 ft 507 kts
2026-05-05 20:26 -43.31599 -73.29759 30153 ft 489 kts
2026-05-05 20:26 -43.28218 -73.29361 29621 ft 484 kts
2026-05-05 20:27 -43.24913 -73.28971 29100 ft 481 kts
2026-05-05 20:27 -43.21598 -73.28581 28572 ft 477 kts
2026-05-05 20:27 -43.18349 -73.28198 28053 ft 474 kts
2026-05-05 20:27 -43.15058 -73.27813 27527 ft 469 kts
2026-05-05 20:28 -43.11840 -73.27466 27014 ft 466 kts
2026-05-05 20:28 -43.08616 -73.27124 26500 ft 462 kts
2026-05-05 20:28 -43.05442 -73.26788 25993 ft 458 kts
2026-05-05 20:28 -43.02271 -73.26452 25487 ft 455 kts
2026-05-05 20:29 -42.99140 -73.26122 24988 ft 454 kts
2026-05-05 20:29 -42.95991 -73.25790 24486 ft 453 kts
2026-05-05 20:29 -42.92853 -73.25459 23986 ft 451 kts
2026-05-05 20:29 -42.89723 -73.25130 23487 ft 449 kts
2026-05-05 20:30 -42.86635 -73.24804 22985 ft 447 kts
2026-05-05 20:30 -42.84091 -73.24535 22578 ft 443 kts
2026-05-05 20:30 -42.80659 -73.24174 22030 ft 439 kts
2026-05-05 20:30 -42.77615 -73.23855 21545 ft 436 kts
2026-05-05 20:31 -42.74633 -73.23542 21069 ft 432 kts
2026-05-05 20:31 -42.71650 -73.23230 20593 ft 429 kts
2026-05-05 20:31 -42.68669 -73.22918 20117 ft 426 kts
2026-05-05 20:31 -42.65721 -73.22610 19647 ft 422 kts
2026-05-05 20:32 -42.62815 -73.22305 19183 ft 419 kts
2026-05-05 20:32 -42.59935 -73.22006 18724 ft 416 kts
2026-05-05 20:32 -42.57077 -73.21707 18268 ft 412 kts
2026-05-05 20:32 -42.54214 -73.21409 17811 ft 409 kts
2026-05-05 20:33 -42.51375 -73.21114 17359 ft 407 kts
2026-05-05 20:33 -42.48570 -73.20821 16911 ft 404 kts
2026-05-05 20:33 -42.45795 -73.20534 16468 ft 401 kts
2026-05-05 20:33 -42.43032 -73.20243 16027 ft 398 kts
2026-05-05 20:34 -42.40271 -73.19905 15586 ft 395 kts
2026-05-05 20:34 -42.37551 -73.19560 15151 ft 392 kts
2026-05-05 20:34 -42.34864 -73.19219 14722 ft 389 kts
2026-05-05 20:34 -42.32213 -73.18883 14299 ft 386 kts
2026-05-05 20:35 -42.29559 -73.18546 13874 ft 383 kts
2026-05-05 20:35 -42.26934 -73.18214 13455 ft 380 kts
2026-05-05 20:35 -42.24328 -73.17883 13038 ft 377 kts
2026-05-05 20:35 -42.21728 -73.17554 12623 ft 374 kts
2026-05-05 20:36 -42.19141 -73.17227 12209 ft 372 kts
2026-05-05 20:36 -42.16546 -73.16899 11794 ft 369 kts
2026-05-05 20:36 -42.14010 -73.16579 11389 ft 367 kts
2026-05-05 20:36 -42.11486 -73.16261 10985 ft 364 kts
2026-05-05 20:37 -42.08986 -73.15945 10586 ft 350 kts
2026-05-05 20:37 -42.06672 -73.15653 10225 ft 317 kts
2026-05-05 20:37 -42.04590 -73.15391 9992 ft 301 kts
2026-05-05 20:37 -42.02468 -73.15125 9700 ft 300 kts
2026-05-05 20:38 -42.00382 -73.14864 9390 ft 299 kts
2026-05-05 20:38 -41.98338 -73.14606 9075 ft 298 kts
2026-05-05 20:38 -41.96281 -73.14348 8751 ft 296 kts
2026-05-05 20:38 -41.94239 -73.14092 8425 ft 294 kts
2026-05-05 20:39 -41.92208 -73.13836 8101 ft 292 kts
2026-05-05 20:39 -41.90188 -73.13584 7778 ft 291 kts
2026-05-05 20:39 -41.88155 -73.13330 7449 ft 289 kts
2026-05-05 20:39 -41.86158 -73.13079 7129 ft 287 kts
2026-05-05 20:40 -41.84181 -73.12834 6813 ft 286 kts
2026-05-05 20:40 -41.82209 -73.12585 6497 ft 285 kts
2026-05-05 20:40 -41.80224 -73.12339 6181 ft 284 kts
2026-05-05 20:40 -41.78285 -73.12095 5891 ft 282 kts
2026-05-05 20:41 -41.76325 -73.11851 5582 ft 281 kts
2026-05-05 20:41 -41.74373 -73.11608 5271 ft 279 kts
2026-05-05 20:41 -41.72469 -73.11371 4967 ft 278 kts
2026-05-05 20:41 -41.70552 -73.11133 4660 ft 277 kts
2026-05-05 20:42 -41.68628 -73.10893 4353 ft 275 kts
2026-05-05 20:42 -41.66795 -73.10665 4042 ft 255 kts
2026-05-05 20:42 -41.65085 -73.10453 3751 ft 239 kts
2026-05-05 20:42 -41.63494 -73.10255 3505 ft 225 kts
2026-05-05 20:43 -41.61960 -73.10064 3266 ft 218 kts
2026-05-05 20:43 -41.60461 -73.09985 3038 ft 218 kts
2026-05-05 20:43 -41.58947 -73.09943 2796 ft 217 kts
2026-05-05 20:43 -41.57439 -73.09892 2550 ft 216 kts
2026-05-05 20:44 -41.55940 -73.09838 2283 ft 215 kts
2026-05-05 20:44 -41.54457 -73.09785 2020 ft 214 kts
2026-05-05 20:44 -41.52968 -73.09732 1866 ft 215 kts
2026-05-05 20:44 -41.51488 -73.09679 1607 ft 209 kts
2026-05-05 20:45 -41.48847 -73.09586 1095 ft 163 kts
2026-05-05 20:45 -41.47815 -73.09548 864 ft 137 kts
2026-05-05 20:45 -41.46904 -73.09515 688 ft 130 kts
2026-05-05 20:46 -41.46003 -73.09483 527 ft 129 kts
2026-05-05 20:46 -41.45100 -73.09447 343 ft 128 kts
2026-05-05 20:46 -41.44259 -73.09415 289 ft 111 kts
2026-05-05 20:46 -41.43704 -73.09388 284 ft 47 kts
2026-05-05 20:47 -41.43503 -73.09390 283 ft 13 kts 343°
2026-05-05 20:47 -41.43470 -73.09502 281 ft 15 kts 272°
2026-05-05 20:47 -41.43468 -73.09618 281 ft 9 kts 269°
2026-05-05 20:47 -41.43469 -73.09626 281 ft 0 kts 268°
2026-05-05 20:48 -41.43469 -73.09630 281 ft 1 kts 268°
2026-05-05 20:48 -41.43476 -73.09648 281 ft 2 kts 227°
2026-05-05 20:48 -41.43491 -73.09671 281 ft 4 kts 230°
2026-05-05 20:48 -41.43499 -73.09683 281 ft 0 kts 229°